Wetbulb
59.31 59.42 59.82 59.94 60.02 60.46 60.89 61.21 61.34 61.61 61.81 61.93 62.07 62.17 61.94 61.50 60.55 57.07 50.74 55.54 57.17 62.60 60.53 52.24 50.65 49.73 49.55 47.61 46.79 42.29 36.42 34.48 36.29 37.61 39.77 42.02 41.83 43.49 44.04 43.94 43.07 43.61 42.78 43.72 49.28
58.95 58.94 59.31 59.60 59.77 60.04 60.45 60.76 60.97 61.35 61.60 61.89 61.50 61.51 61.44 60.87 55.72 51.72 59.41 62.37 62.43 61.84 51.53 48.88 46.56 47.02 45.27 45.42 45.21 40.89 35.51 37.94 40.59 39.81 40.23 42.61 42.57 44.11 42.24 41.68 40.17 40.62 42.97 45.04 48.04
58.82 58.72 58.99 59.21 59.46 59.79 60.04 60.40 60.69 61.09 61.30 61.43 60.88 60.71 60.35 58.59 50.58 49.52 62.03 62.21 62.14 59.01 52.93 50.87 49.08 46.46 43.07 43.16 42.47 39.95 37.24 39.95 41.87 43.94 43.71 43.27 41.42 43.20 41.63 39.22 42.42 42.38 43.52 44.53 44.66
58.94 58.61 58.56 58.72 58.89 59.30 59.84 60.08 60.38 60.28 59.06 60.65 60.71 60.53 60.00 54.61 41.07 53.06 61.54 61.45 61.84 55.15 52.00 49.40 46.45 41.87 40.76 40.44 43.89 37.17 41.10 42.66 45.01 44.81 44.06 43.02 43.20 41.84 42.16 42.14 44.55 44.42 44.19 43.33 43.32
59.09 58.92 58.42 58.25 58.41 58.93 59.49 59.77 60.02 58.76 58.67 59.75 60.81 60.30 54.78 47.41 49.36 55.61 59.88 59.31 55.29 51.85 49.05 47.19 43.71 42.40 39.75 41.32 42.46 39.48 41.15 43.61 44.70 44.19 42.60 44.41 42.21 42.18 41.69 41.00 42.67 44.01 44.49 42.91 42.42
57.95 58.50 58.50 58.26 58.17 58.54 59.02 59.39 59.60 59.11 58.88 59.70 60.82 59.79 51.01 42.74 54.75 55.02 54.18 53.31 52.05 49.95 47.45 47.41 45.18 45.12 42.75 41.58 40.27 42.81 42.55 42.93 44.01 43.51 43.27 42.46 40.56 41.54 41.73 41.72 42.24 43.08 42.01 41.50 41.89
57.73 57.60 57.98 58.27 58.16 58.34 58.73 58.99 59.19 59.36 59.29 60.14 60.41 56.66 48.67 48.06 54.38 52.06 52.32 50.61 50.89 49.95 47.67 48.35 48.08 45.17 43.98 41.61 43.98 42.52 38.40 40.15 41.70 42.90 42.16 42.69 39.50 40.84 41.99 41.53 41.25 40.81 40.04 40.62 41.57
58.17 57.57 57.35 57.67 58.10 58.17 58.43 58.75 58.98 59.19 59.41 60.37 60.86 52.01 45.34 53.16 53.07 51.92 51.20 49.69 50.58 50.81 49.99 49.21 49.01 46.94 44.24 43.68 42.39 38.11 37.19 34.32 40.04 42.00 41.59 40.70 35.87 41.46 41.27 40.58 39.82 39.41 38.14 39.11 40.17
57.84 57.36 57.24 57.17 57.56 57.84 58.11 58.46 58.31 58.88 59.81 60.50 52.03 48.49 44.28 55.13 52.12 53.06 50.11 48.69 49.12 49.18 48.85 51.56 48.25 43.14 42.17 37.45 34.96 35.46 32.17 33.10 38.18 41.52 40.24 38.99 36.81 40.93 39.77 40.26 39.26 38.09 37.89 38.56 38.51
57.75 57.19 57.24 57.06 56.72 57.60 57.85 58.44 58.21 57.93 57.03 56.90 53.47 43.61 46.26 46.39 50.56 51.21 50.06 50.16 47.43 46.37 45.29 45.16 41.71 38.39 36.88 35.09 30.70 32.57 31.94 34.41 34.75 39.38 38.00 35.84 37.11 39.92 40.59 40.21 40.14 38.35 37.68 37.89 38.30
57.83 57.48 57.25 57.03 57.15 57.69 56.11 52.55 46.82 44.71 48.56 41.96 44.07 42.77 46.18 47.91 50.42 48.84 50.25 48.45 47.10 43.92 38.42 40.21 36.81 34.61 37.80 37.78 37.81 36.33 34.29 34.18 36.37 40.54 38.23 37.35 37.30 40.01 40.52 39.17 38.67 38.17 38.05 38.55 39.05
58.14 57.72 57.56 57.25 57.35 57.61 54.20 48.89 47.89 48.98 42.62 49.17 49.29 48.63 48.24 48.78 44.43 47.48 49.62 44.68 42.82 38.85 39.78 37.41 35.06 40.49 40.87 39.76 38.13 36.01 34.21 33.98 37.54 39.71 38.04 37.29 36.62 39.25 40.07 40.23 41.33 41.73 39.86 39.97 37.51
58.25 57.90 57.43 57.25 57.42 55.43 51.82 51.28 52.43 50.43 41.82 44.16 48.83 48.41 47.08 47.54 44.91 45.23 47.31 44.17 40.70 38.71 38.63 36.03 40.15 42.47 41.30 38.82 37.43 36.21 34.64 33.94 36.50 36.31 36.05 33.89 32.95 36.91 40.80 40.52 41.21 41.72 43.53 42.07 40.01
57.76 58.01 57.42 57.22 53.62 52.93 50.44 54.37 54.88 51.43 32.39 36.31 43.40 47.40 45.86 46.86 42.90 48.26 47.92 45.04 40.54 38.96 38.93 37.81 42.01 40.72 38.85 38.09 39.10 34.39 39.29 38.59 36.82 34.12 29.92 34.65 28.72 33.53 38.12 39.31 40.05 42.03 40.95 41.65 39.70
56.38 57.71 57.51 56.45 53.28 50.73 52.62 55.33 54.54 47.74 21.62 37.93 43.42 48.79 45.45 44.17 42.51 42.32 45.70 43.27 39.16 39.66 39.66 37.53 38.33 38.56 37.81 38.89 40.70 37.68 39.26 36.97 35.19 31.96 30.21 30.41 28.51 32.36 36.64 36.83 40.59 44.29 41.62 40.51 39.19
54.34 56.33 57.05 55.58 54.91 54.11 54.98 56.02 53.92 35.87 24.13 35.56 42.23 40.65 40.92 41.93 40.29 41.53 42.51 43.62 42.86 39.71 38.24 37.86 39.62 40.41 40.55 39.13 40.51 39.38 37.39 35.76 33.68 31.94 26.26 32.47 31.26 30.36 35.43 39.71 40.05 41.25 40.23 39.53 38.18
53.90 54.18 55.86 56.65 51.30 56.21 57.14 49.51 33.14 28.20 37.94 34.57 37.54 40.28 39.75 38.23 37.83 38.94 37.91 37.21 36.45 33.47 34.05 35.88 36.95 38.18 39.56 37.53 38.25 37.41 34.26 26.64 25.53 24.03 26.33 30.67 28.68 35.97 38.91 40.37 41.70 42.97 41.04 37.07 36.81
53.62 53.51 54.98 56.61 56.37 56.45 53.45 40.00 27.61 34.22 34.47 39.72 39.08 38.12 36.73 39.24 37.79 37.17 35.77 35.17 38.58 36.16 33.03 32.93 30.38 37.26 39.20 38.92 36.62 35.71 34.18 27.76 22.08 22.61 25.17 29.07 26.91 33.58 39.42 42.22 39.30 39.51 39.57 35.80 34.13
53.02 50.82 53.64 55.70 56.24 55.77 45.67 31.62 34.58 34.71 38.47 37.00 38.39 34.97 34.82 37.51 36.77 34.01 33.14 34.12 37.78 37.68 35.22 31.01 31.48 36.17 36.96 38.93 41.21 33.70 32.22 37.15 30.14 17.15 22.09 29.19 32.31 36.94 37.71 37.80 37.78 37.39 36.08 33.32 33.50
47.80 46.26 49.41 56.70 56.15 52.66 41.01 35.64 36.10 40.46 40.91 41.01 36.77 38.34 33.88 34.91 34.73 33.73 32.85 36.60 37.50 39.77 40.25 37.73 30.88 34.42 35.29 38.40 36.62 36.00 38.30 30.08 28.61 19.78 18.68 26.79 27.94 32.91 34.01 36.81 38.99 37.57 35.64 34.72 33.64
47.16 42.39 48.99 56.30 54.42 47.36 36.01 35.48 38.12 40.96 42.03 39.33 38.14 38.03 37.62 35.47 35.82 33.08 34.69 36.98 40.00 38.31 42.05 39.86 37.24 31.04 34.64 33.42 33.71 33.65 32.54 33.36 33.85 28.99 23.66 20.67 28.55 35.56 39.51 39.22 38.69 38.69 37.43 35.46 34.53
44.75 37.53 49.87 55.00 43.09 43.73 40.27 40.31 41.08 39.22 42.72 40.86 40.80 39.96 37.46 38.03 36.08 34.57 34.77 37.03 40.65 40.08 36.49 39.67 37.91 28.93 31.08 34.20 34.55 34.45 33.73 34.25 29.07 26.55 27.78 27.11 33.62 37.17 37.80 38.64 38.55 39.22 37.81 36.07 36.19
40.54 39.02 49.87 52.26 37.68 38.45 42.47 42.32 43.63 40.24 40.35 39.61 40.11 40.99 40.93 38.65 36.29 36.72 36.17 39.81 41.17 39.99 37.22 39.99 34.64 26.25 29.00 32.06 32.16 31.88 34.48 38.21 34.84 30.12 30.35 26.07 32.57 35.61 36.24 36.82 38.33 38.55 36.93 35.53 35.12
39.70 33.38 39.09 46.03 44.48 40.83 38.39 39.82 39.67 43.82 41.68 41.52 41.53 42.16 40.87 39.66 41.22 36.30 36.65 39.72 41.28 41.52 42.94 43.65 37.31 33.29 30.94 32.63 33.51 30.14 32.29 34.86 36.77 31.56 31.60 32.06 36.15 34.59 36.09 38.05 38.61 37.13 35.97 34.66 34.78
38.90 35.68 35.92 35.22 36.50 40.59 39.69 40.35 38.07 38.50 42.13 42.64 39.89 40.60 39.35 37.35 38.34 38.40 40.45 38.39 39.51 41.44 41.55 41.75 35.12 36.74 38.03 36.33 34.48 32.43 34.40 34.82 33.71 35.81 32.13 36.94 36.39 40.50 40.36 38.25 38.56 38.94 36.07 34.30 33.90
35.03 34.30 37.14 35.84 37.54 38.54 37.86 37.50 34.19 40.21 40.90 38.79 38.38 40.25 41.16 38.44 39.67 37.91 40.06 39.68 39.14 38.65 40.06 39.89 35.40 37.27 34.48 37.21 34.71 33.83 33.23 34.50 35.79 36.70 36.33 37.50 36.93 40.89 39.80 39.07 37.23 38.06 36.90 35.32 35.21
38.44 41.49 39.19 35.73 34.64 33.96 35.41 37.67 37.43 39.24 39.52 42.75 41.64 40.18 39.66 41.03 43.62 44.87 43.57 44.01 42.80 40.56 38.39 36.98 36.99 34.62 32.38 35.57 32.92 31.02 35.36 34.43 34.89 37.45 36.70 33.07 38.86 38.46 39.81 40.29 40.27 38.61 37.27 37.34 37.44
MSLP
1019.36 1019.42 1019.33 1019.32 1019.11 1018.99 1018.92 1018.76 1018.66 1018.47 1018.19 1017.86 1017.46 1017.22 1016.90 1016.52 1015.70 1015.76 1015.78 1015.78 1015.63 1015.32 1015.23 1014.89 1014.48 1014.41 1014.50 1015.22 1015.68 1016.43 1018.03 1018.45 1017.91 1017.70 1016.84 1016.48 1016.62 1016.82 1017.09 1017.88 1019.02 1019.64 1019.96 1020.09 1020.71
1019.49 1019.45 1019.41 1019.34 1019.20 1019.05 1018.96 1018.86 1018.68 1018.48 1018.21 1017.92 1017.59 1017.24 1016.93 1016.61 1016.11 1015.74 1015.59 1015.46 1015.37 1015.27 1015.16 1015.09 1014.95 1014.72 1015.19 1015.67 1016.14 1016.98 1018.17 1017.72 1017.28 1017.03 1016.75 1016.49 1016.54 1016.87 1017.43 1018.38 1019.49 1020.13 1020.38 1020.56 1020.96
1019.41 1019.40 1019.35 1019.33 1019.27 1019.24 1019.10 1018.95 1018.71 1018.55 1018.32 1017.91 1017.61 1017.20 1016.88 1016.50 1016.14 1015.73 1015.46 1015.36 1015.36 1015.29 1015.26 1015.18 1015.02 1014.96 1015.47 1015.81 1016.35 1016.87 1017.33 1017.10 1016.97 1016.72 1016.56 1016.66 1016.72 1016.88 1017.55 1018.62 1019.00 1019.80 1020.50 1020.87 1021.33
1019.31 1019.24 1019.32 1019.24 1019.23 1019.17 1019.17 1018.99 1018.74 1018.71 1018.47 1018.02 1017.56 1017.00 1016.56 1016.31 1016.28 1015.55 1015.40 1015.45 1015.36 1015.31 1015.25 1015.19 1015.18 1015.37 1015.83 1016.19 1016.28 1016.67 1016.81 1016.81 1016.87 1016.72 1016.67 1016.82 1016.84 1017.23 1017.75 1018.02 1018.31 1019.03 1020.03 1020.82 1021.46
1019.41 1019.32 1019.28 1019.26 1019.23 1019.16 1019.12 1018.99 1018.83 1018.83 1018.54 1018.11 1017.54 1016.96 1016.37 1016.31 1015.67 1015.29 1015.33 1015.44 1015.36 1015.26 1015.26 1015.35 1015.47 1015.61 1016.08 1016.32 1016.49 1016.68 1016.81 1016.73 1016.78 1016.86 1016.89 1016.97 1017.22 1017.58 1018.04 1018.46 1018.88 1019.48 1020.41 1021.16 1021.66
1019.44 1019.33 1019.30 1019.27 1019.23 1019.12 1019.01 1018.91 1018.80 1018.62 1018.47 1018.16 1017.70 1017.02 1016.94 1016.63 1015.39 1015.40 1015.40 1015.44 1015.39 1015.41 1015.40 1015.50 1015.72 1015.77 1016.20 1016.50 1016.78 1016.95 1017.06 1017.01 1016.96 1017.10 1017.13 1017.40 1017.69 1018.00 1018.25 1018.97 1019.69 1020.21 1020.80 1021.36 1021.67
1019.25 1019.30 1019.25 1019.22 1019.19 1019.06 1019.00 1018.87 1018.70 1018.50 1018.31 1018.12 1017.96 1017.78 1017.40 1016.37 1015.68 1015.53 1015.58 1015.55 1015.55 1015.58 1015.73 1015.82 1015.85 1016.05 1016.55 1016.99 1017.15 1017.30 1017.59 1017.49 1017.16 1017.32 1017.45 1017.65 1018.23 1018.07 1018.48 1019.39 1020.15 1020.76 1021.14 1021.61 1021.80
1018.84 1019.12 1019.20 1019.15 1019.09 1019.02 1018.94 1018.87 1018.62 1018.37 1018.24 1018.06 1017.92 1018.03 1017.04 1015.90 1015.81 1015.67 1015.69 1015.68 1015.66 1015.75 1015.91 1016.03 1015.96 1016.43 1016.97 1017.48 1017.83 1018.09 1018.30 1018.32 1017.38 1017.46 1017.64 1018.10 1018.06 1017.87 1018.61 1019.52 1020.40 1020.95 1021.42 1021.67 1021.76
1018.48 1018.77 1019.07 1019.14 1019.05 1018.91 1018.83 1018.71 1018.51 1018.29 1018.14 1018.06 1018.01 1018.03 1017.00 1015.99 1016.05 1015.70 1015.75 1015.96 1016.06 1016.22 1016.27 1016.21 1016.37 1017.39 1017.87 1018.60 1019.24 1019.24 1019.13 1018.94 1018.15 1017.78 1017.97 1018.38 1018.30 1018.00 1018.67 1019.45 1020.27 1020.77 1021.27 1021.43 1021.67
1018.00 1018.32 1018.81 1018.96 1019.02 1018.96 1018.77 1018.47 1018.30 1018.32 1017.90 1018.10 1018.15 1018.33 1016.88 1016.30 1016.05 1015.95 1015.93 1016.14 1016.48 1016.69 1016.93 1017.10 1017.97 1018.57 1019.14 1019.43 1019.74 1019.60 1019.61 1019.02 1018.64 1018.24 1018.41 1018.68 1018.35 1018.36 1018.83 1019.37 1019.55 1020.16 1020.61 1021.03 1021.20
1017.73 1017.69 1018.50 1018.79 1018.83 1019.01 1018.91 1018.41 1018.73 1018.67 1018.30 1017.27 1016.99 1016.69 1016.44 1016.40 1016.26 1016.35 1016.24 1016.39 1016.78 1017.30 1017.80 1018.10 1018.80 1018.99 1018.73 1018.83 1018.77 1019.02 1019.26 1019.01 1018.51 1018.06 1018.58 1018.45 1018.31 1018.02 1018.34 1018.99 1019.14 1019.50 1019.72 1020.06 1020.27
1017.23 1017.06 1018.25 1018.53 1018.70 1018.88 1019.15 1018.67 1017.70 1017.68 1017.50 1016.52 1016.72 1016.53 1016.03 1016.04 1016.46 1016.55 1016.54 1016.91 1017.23 1017.86 1018.32 1019.01 1018.60 1018.05 1018.50 1018.87 1019.00 1019.10 1019.28 1019.05 1018.64 1018.25 1018.72 1018.36 1018.25 1017.72 1017.70 1017.61 1017.43 1017.55 1018.11 1018.39 1019.51
1016.81 1017.39 1017.95 1018.20 1018.65 1018.87 1018.90 1018.06 1017.29 1017.44 1017.71 1016.14 1015.55 1015.41 1015.42 1015.82 1015.88 1016.09 1016.48 1016.93 1017.36 1018.01 1018.32 1018.36 1017.63 1017.39 1018.34 1018.78 1019.15 1018.97 1019.05 1018.96 1018.93 1018.66 1018.77 1018.82 1018.27 1017.59 1016.37 1016.16 1015.92 1015.88 1015.81 1016.54 1017.35
1016.93 1016.96 1017.42 1018.15 1019.21 1018.38 1018.32 1017.51 1017.37 1017.52 1017.75 1015.74 1014.95 1013.77 1014.37 1015.09 1015.65 1015.15 1015.47 1016.07 1017.21 1017.36 1018.10 1018.09 1017.31 1017.56 1018.03 1018.31 1018.63 1018.63 1018.20 1018.59 1019.00 1019.46 1019.49 1019.21 1017.88 1017.03 1016.20 1015.50 1015.16 1014.37 1014.89 1015.21 1016.32
1016.88 1016.86 1016.95 1017.34 1017.50 1017.90 1016.93 1017.36 1017.59 1017.48 1017.72 1014.64 1014.21 1013.84 1014.13 1014.76 1015.17 1015.68 1015.61 1015.72 1016.25 1016.90 1017.60 1016.73 1016.91 1017.31 1017.45 1017.28 1017.87 1018.06 1018.22 1018.84 1019.27 1019.87 1020.09 1019.80 1019.59 1016.04 1015.56 1015.19 1014.26 1013.23 1013.74 1014.31 1015.24
1017.04 1016.76 1016.87 1017.03 1017.19 1016.88 1016.84 1017.33 1017.48 1018.67 1016.56 1014.64 1014.36 1014.35 1014.74 1014.99 1015.49 1015.97 1015.95 1015.85 1016.05 1016.71 1016.85 1016.74 1016.56 1016.63 1016.47 1017.05 1017.31 1018.03 1018.81 1019.69 1020.47 1020.98 1020.64 1019.38 1019.35 1015.69 1015.01 1013.71 1013.04 1012.39 1012.91 1013.51 1014.43
1016.91 1016.86 1016.73 1016.27 1016.25 1016.64 1017.14 1017.28 1019.00 1018.18 1016.03 1014.94 1014.79 1014.86 1015.15 1015.52 1015.99 1015.99 1016.12 1016.18 1016.11 1016.94 1016.77 1016.92 1016.67 1016.57 1016.61 1017.33 1017.91 1018.23 1019.45 1020.83 1021.71 1021.94 1020.03 1018.96 1018.64 1014.53 1013.32 1012.61 1012.30 1012.11 1012.52 1013.32 1014.23
1016.67 1016.56 1015.93 1015.65 1015.96 1016.54 1016.91 1018.05 1018.61 1016.05 1014.47 1014.15 1014.67 1015.22 1015.49 1015.57 1016.16 1016.40 1016.45 1016.52 1015.96 1015.86 1016.34 1016.55 1016.48 1016.04 1016.09 1016.02 1017.04 1018.10 1018.58 1019.76 1020.67 1021.46 1020.50 1019.37 1016.86 1013.59 1012.28 1011.63 1012.10 1012.24 1012.45 1013.34 1014.65
1016.34 1015.70 1015.28 1014.86 1015.53 1015.94 1016.49 1016.86 1014.59 1014.37 1014.07 1013.79 1014.60 1015.19 1015.74 1015.65 1015.88 1016.47 1016.51 1015.90 1015.01 1015.16 1015.44 1015.77 1015.66 1015.27 1015.49 1015.64 1016.23 1017.89 1018.20 1018.52 1019.87 1021.40 1020.85 1017.92 1015.02 1013.25 1012.24 1011.92 1011.74 1011.90 1012.91 1013.99 1014.92
1016.40 1015.84 1014.06 1013.94 1014.95 1015.18 1015.07 1014.49 1013.36 1012.70 1012.89 1012.44 1013.15 1013.83 1014.61 1015.48 1015.86 1016.13 1015.97 1014.47 1014.44 1013.90 1013.87 1014.29 1015.21 1015.55 1015.84 1015.98 1016.37 1016.32 1016.88 1018.67 1020.00 1020.82 1019.83 1016.78 1015.01 1012.70 1011.96 1011.72 1011.42 1011.90 1012.45 1013.59 1014.68
1016.16 1015.29 1012.38 1012.73 1014.45 1013.77 1012.64 1013.27 1012.27 1011.84 1011.65 1011.69 1011.89 1012.62 1013.02 1014.32 1014.62 1014.83 1014.23 1013.53 1013.31 1013.46 1013.60 1014.01 1014.65 1016.00 1016.04 1015.74 1015.67 1016.49 1016.49 1017.17 1018.04 1018.78 1018.08 1016.36 1012.56 1010.51 1010.20 1010.30 1010.72 1011.10 1011.56 1012.87 1014.01
1015.68 1014.36 1012.10 1012.33 1013.22 1012.04 1011.45 1011.07 1011.29 1011.20 1011.58 1011.21 1011.19 1011.13 1011.54 1012.44 1013.28 1013.76 1013.05 1012.35 1012.07 1012.37 1013.44 1013.23 1014.05 1015.07 1015.16 1015.18 1015.27 1015.19 1015.27 1015.84 1016.54 1017.17 1016.52 1014.78 1009.36 1009.14 1009.17 1009.56 1010.17 1010.55 1011.13 1012.10 1013.17
1014.75 1013.42 1012.15 1011.93 1011.03 1011.17 1010.74 1010.40 1010.33 1010.50 1010.35 1010.65 1010.58 1010.51 1010.76 1011.39 1012.26 1011.91 1011.83 1011.49 1011.67 1011.76 1012.05 1012.78 1013.66 1014.64 1014.95 1015.46 1015.36 1015.22 1014.99 1014.55 1015.03 1015.36 1013.56 1013.85 1008.20 1008.82 1008.72 1009.27 1009.61 1010.21 1010.73 1011.84 1013.09
1014.95 1013.03 1012.08 1011.52 1010.71 1010.36 1010.33 1009.53 1009.53 1009.42 1009.63 1010.23 1009.50 1010.20 1010.62 1010.74 1010.92 1010.77 1011.10 1011.34 1011.19 1011.22 1010.96 1011.33 1012.47 1012.87 1012.25 1012.10 1013.03 1014.15 1013.68 1013.87 1014.12 1013.71 1011.35 1009.72 1007.56 1008.36 1008.44 1008.76 1009.02 1009.81 1010.64 1011.40 1012.53
1014.29 1012.33 1011.01 1010.36 1010.38 1009.77 1009.90 1008.68 1008.96 1008.97 1009.01 1009.45 1009.46 1009.10 1009.51 1009.49 1010.14 1010.05 1010.32 1010.86 1010.89 1010.62 1010.84 1010.89 1011.78 1012.00 1010.99 1011.81 1011.99 1011.95 1011.85 1012.24 1012.04 1009.72 1011.01 1005.90 1008.17 1005.82 1007.46 1008.15 1008.34 1008.99 1009.99 1011.13 1011.98
1013.62 1012.49 1011.30 1010.16 1009.82 1009.52 1009.17 1008.43 1008.63 1008.04 1008.38 1008.39 1008.33 1008.23 1008.11 1007.99 1007.85 1007.64 1008.48 1009.31 1009.70 1010.28 1010.39 1010.73 1010.75 1011.85 1011.19 1010.96 1011.45 1011.64 1011.11 1009.87 1009.88 1009.32 1009.48 1007.32 1005.98 1006.47 1006.62 1007.08 1007.85 1008.48 1009.38 1010.23 1010.71
1012.46 1011.96 1011.58 1009.79 1009.65 1009.64 1008.83 1008.02 1007.71 1008.43 1008.53 1008.23 1008.08 1007.97 1007.40 1007.38 1006.93 1006.82 1008.05 1008.37 1008.60 1009.36 1010.06 1010.72 1011.03 1011.61 1010.55 1010.58 1011.65 1011.45 1006.03 1009.00 1008.96 1008.37 1008.27 1007.56 1002.81 1006.22 1006.11 1006.48 1006.65 1007.24 1008.13 1008.75 1009.12
Wind_Speed
7 7 7 8 9 10 10 11 11 12 13 13 14 12 12 13 11 1 1 2 4 8 6 5 4 3 4 4 4 4 6 1 0 6 4 2 4 0 3 7 4 4 4 3 11
4 5 7 8 9 9 10 11 11 13 13 14 15 13 11 12 2 3 1 5 6 4 2 4 3 3 4 2 3 6 4 4 2 3 5 6 5 7 4 4 3 3 3 5 8
2 3 5 6 8 9 9 10 11 13 15 15 15 14 12 7 2 2 1 3 4 2 1 1 1 2 4 3 2 3 5 3 2 1 3 5 2 3 8 3 7 10 10 7 5
0 2 3 4 6 7 9 10 11 13 15 16 16 16 17 1 2 1 1 4 4 3 2 1 3 3 4 2 1 3 1 3 3 1 3 6 2 3 5 5 2 9 9 7 9
2 1 0 2 4 5 7 8 10 13 15 17 17 18 5 3 3 2 1 2 4 1 2 2 3 2 4 2 2 2 1 1 3 4 2 1 3 4 4 1 5 11 8 10 8
6 3 2 2 3 5 6 7 9 10 13 16 16 17 3 2 1 2 1 0 2 2 2 4 2 1 3 2 3 4 0 3 4 3 3 4 2 2 2 6 8 9 9 9 9
8 7 5 3 4 5 7 7 9 10 12 14 13 5 2 8 4 2 1 1 1 1 3 2 1 4 1 2 1 1 3 4 5 4 4 4 5 10 5 8 10 9 8 8 9
8 8 7 6 4 6 7 9 9 10 12 11 11 2 6 1 1 1 1 3 3 4 3 1 3 4 3 1 5 2 4 3 3 7 3 5 8 4 8 12 11 10 8 8 8
9 8 7 7 5 5 7 10 10 10 11 10 3 2 8 3 1 3 3 4 3 3 4 2 4 3 5 5 5 5 3 4 8 6 4 5 6 4 6 9 9 9 9 9 8
11 9 9 7 7 6 8 9 8 8 3 1 1 3 3 4 1 2 1 5 3 3 4 5 6 4 3 4 6 6 4 5 5 4 2 3 11 7 6 8 12 10 10 10 11
13 10 10 9 5 4 6 3 3 2 1 8 7 4 4 1 2 1 1 4 4 5 5 0 4 8 13 10 5 4 4 4 3 4 5 8 9 11 9 7 10 10 12 14 16
13 11 12 10 7 3 1 2 4 3 6 9 6 6 4 6 4 4 5 5 4 5 5 4 8 11 6 5 5 4 4 7 6 4 6 7 11 10 6 9 13 17 15 18 9
13 14 13 11 8 4 3 6 2 3 2 7 8 8 7 9 8 11 11 5 5 7 9 9 6 5 9 5 6 6 7 5 8 1 3 3 7 10 10 8 8 11 16 14 20
8 15 13 9 4 4 4 7 3 1 3 8 7 8 7 8 7 6 10 8 4 12 7 7 6 6 5 6 8 7 7 6 4 2 5 4 9 5 7 11 9 16 13 17 15
10 11 18 17 4 5 4 5 4 2 4 5 3 1 2 9 4 1 2 3 9 9 8 10 8 9 7 8 10 7 4 4 2 3 2 3 5 7 4 8 16 21 12 14 16
11 9 16 11 1 2 1 7 3 1 13 3 2 3 6 2 2 3 4 3 4 5 3 4 0 6 8 3 6 6 6 7 5 3 5 9 9 6 8 13 9 9 7 14 15
10 12 11 7 5 5 4 6 5 8 6 5 4 6 2 4 3 4 7 8 9 7 11 2 4 2 3 6 3 4 7 2 4 1 10 2 5 14 9 11 12 13 8 10 10
11 14 7 9 4 10 7 2 7 7 9 5 4 3 6 6 4 5 7 7 9 2 4 10 7 12 7 11 9 8 9 9 8 6 6 2 10 8 13 12 6 10 8 7 9
12 3 4 7 9 9 9 6 12 11 7 9 6 5 5 5 6 4 6 7 9 12 11 8 7 1 1 4 12 7 9 5 2 1 1 7 9 8 10 10 10 11 4 6 8
2 3 9 10 13 10 7 14 9 10 8 8 15 8 11 8 9 9 10 7 7 14 4 6 2 1 2 4 2 7 9 3 2 3 7 6 7 10 5 13 14 13 9 9 9
2 4 5 16 11 9 10 10 8 5 4 11 18 14 12 11 10 8 8 3 9 9 19 4 4 1 4 8 12 4 6 4 5 6 6 3 9 9 14 12 12 13 10 10 13
4 6 4 13 11 5 16 14 10 7 7 3 3 17 13 11 11 10 17 9 9 11 14 10 3 6 10 3 2 1 4 7 6 7 7 3 19 5 5 6 8 10 9 8 11
4 5 4 10 13 17 8 19 17 9 16 10 11 8 5 10 6 12 8 7 9 12 12 10 4 2 5 4 2 6 8 16 2 4 16 6 12 3 6 5 7 10 7 6 8
5 5 5 8 14 18 25 16 28 16 16 13 14 6 12 13 8 5 7 7 11 12 10 13 6 12 17 6 8 8 10 13 18 12 9 22 20 6 5 8 7 7 6 8 10
6 6 5 7 14 19 23 14 28 19 18 20 13 21 23 14 17 26 22 7 6 8 10 14 14 17 25 7 5 5 16 23 25 33 12 33 22 21 13 11 11 8 6 7 9
5 6 4 9 3 8 23 17 6 24 18 18 21 25 24 24 23 21 20 16 15 4 12 3 15 17 24 19 9 12 11 26 29 30 26 31 34 4 6 5 5 11 11 12 13
6 9 5 10 10 10 5 12 21 21 11 16 24 24 24 26 23 20 1 8 6 17 15 9 13 11 21 13 4 6 42 13 15 21 19 25 40 7 13 14 15 13 11 14 16
Wind_Direction
48 36 34 29 27 21 15 11 4 359 353 346 342 334 335 333 320 196 74 289 285 314 324 301 350 345 47 63 44 93 64 95 241 160 215 206 128 108 108 98 57 1 144 179 132
65 47 29 23 19 16 9 4 359 353 348 342 337 331 333 335 349 65 261 292 292 315 28 30 20 357 43 56 34 81 98 196 199 200 211 181 152 157 119 117 53 47 34 104 126
87 55 41 28 15 6 4 358 354 350 344 341 335 332 328 329 76 269 295 293 279 345 310 283 298 78 66 53 33 143 159 195 246 254 157 167 147 188 121 227 190 186 178 162 143
117 56 25 19 11 5 355 352 352 349 342 337 334 335 329 83 161 248 253 280 269 316 315 21 32 63 85 91 38 96 151 170 169 311 124 158 162 168 171 217 261 171 153 146 157
235 229 353 356 350 349 348 348 347 344 338 336 337 338 357 13 247 162 151 280 304 330 62 87 64 91 112 138 73 111 263 282 162 147 142 144 190 183 220 230 93 126 140 155 159
266 245 267 297 316 328 335 338 336 333 335 335 340 334 21 271 79 142 143 32 16 21 53 51 122 127 101 121 138 171 252 266 223 208 197 187 231 164 221 148 130 146 168 172 172
255 266 260 280 303 316 320 323 322 324 328 330 342 349 345 237 323 158 159 99 31 72 98 38 107 87 98 94 301 66 314 323 226 197 223 147 284 234 180 164 168 178 180 182 191
228 246 259 264 290 307 313 314 313 317 318 322 328 358 248 350 303 146 107 29 30 33 95 28 60 96 92 120 28 35 50 356 285 148 215 133 262 249 172 163 194 195 196 195 201
221 226 243 265 273 295 306 303 305 312 304 309 11 73 270 342 189 212 139 143 75 31 24 57 64 98 50 90 14 354 233 216 313 202 132 169 258 268 161 173 200 203 205 206 206
211 210 230 240 267 295 298 287 291 327 340 177 271 19 253 228 186 154 83 139 110 84 36 53 50 78 51 102 220 206 224 244 233 222 202 205 258 258 197 193 212 206 213 211 209
214 196 215 223 230 287 334 354 17 337 258 193 197 202 141 146 14 305 192 117 95 66 148 32 111 201 202 200 175 162 194 236 253 231 167 232 256 259 211 226 237 226 218 216 217
217 190 206 206 201 190 25 206 210 169 306 233 235 277 165 174 118 228 132 141 147 170 122 52 230 224 193 209 214 232 254 259 271 247 183 258 253 261 227 225 219 226 222 217 185
216 213 199 186 174 153 211 230 82 140 247 276 195 186 191 154 203 191 154 154 158 150 191 172 218 148 166 183 197 227 209 232 231 14 254 309 264 245 256 236 240 241 229 214 199
294 213 183 152 165 162 224 239 224 107 314 264 219 245 139 138 236 179 180 146 184 191 172 226 236 169 168 198 173 240 202 193 201 133 241 149 282 271 249 255 231 245 224 219 193
323 249 180 167 149 189 216 180 154 68 299 249 182 39 164 165 134 249 245 86 173 182 143 228 181 190 193 192 168 229 160 189 189 184 352 232 294 256 245 261 257 253 229 217 193
347 304 193 189 296 227 232 148 112 249 231 254 94 158 134 143 75 96 130 38 154 147 259 226 342 167 199 116 172 135 80 47 49 77 264 223 196 195 209 224 254 259 221 212 192
334 332 222 162 199 167 213 93 101 181 306 207 175 175 174 153 120 144 160 174 167 152 221 122 218 204 150 97 48 106 101 296 321 339 241 335 235 250 260 239 225 256 265 217 189
322 314 233 218 175 156 154 121 204 219 198 103 121 79 191 148 193 161 130 192 244 173 122 185 259 170 188 187 169 202 164 166 217 212 257 343 239 249 234 266 271 275 272 181 169
323 272 226 192 169 182 160 205 198 183 195 154 114 130 234 212 154 138 208 217 201 185 190 174 265 120 134 150 158 203 212 174 63 78 13 223 277 287 252 278 275 258 222 193 182
303 277 245 168 173 194 198 228 212 177 169 165 203 170 183 204 168 178 170 201 219 196 188 209 263 20 200 112 18 165 163 95 19 239 250 264 258 231 219 239 252 267 226 194 183
238 253 238 160 171 209 202 227 225 212 189 175 210 201 198 174 201 201 207 226 195 196 194 169 192 225 126 206 174 154 192 185 145 164 207 282 254 217 210 215 224 240 232 189 185
252 233 220 152 196 233 220 204 170 179 215 234 240 211 190 178 189 205 207 209 181 146 182 203 171 202 201 219 238 304 249 175 151 215 240 217 253 186 195 227 209 252 235 193 187
243 247 214 190 218 221 223 229 224 176 207 185 217 214 162 181 206 211 201 204 177 164 167 164 211 18 325 351 344 216 212 207 73 66 229 181 250 229 182 247 237 246 232 189 173
264 253 205 226 250 228 221 230 223 206 207 215 213 170 210 231 220 245 220 201 195 208 180 164 161 204 232 228 144 201 199 202 209 233 218 238 260 202 205 219 243 240 228 185 185
223 241 225 196 230 233 243 246 225 223 209 202 232 210 221 214 217 234 239 195 218 226 195 173 216 224 242 236 196 212 206 203 209 227 202 254 245 247 232 219 233 227 202 182 192
248 223 263 244 283 229 241 232 240 234 208 212 219 216 217 218 210 224 214 205 209 182 195 212 229 228 256 241 205 233 224 220 214 227 233 253 261 163 213 255 214 215 201 202 206
216 262 269 246 227 248 230 253 238 238 261 258 232 223 223 227 229 241 172 223 220 208 195 170 213 214 238 225 172 261 238 183 213 224 220 238 249 188 256 244 237 231 207 209 216